IK7IZV Weather Reports


time (UTC)temp
C
wind
direction
speed
KPH
gust
KPH
rain 1hr
cm
rain 24hr
cm
rain mn
cm
humidity
%
barometer
mb
20260503230040 13 267 0.0 8.0 0.00 0.00 0.00 68 1020.1
20260503224534 13 257 1.6 6.4 0.00 0.00 0.00 68 1020.0
20260503223033 13 204 0.0 4.8 0.00 0.00 0.00 68 1020.1
20260503221530 13 239 0.0 6.4 0.00 0.00 0.00 67 1020.1
20260503220041 13 260 3.2 11.3 0.00 0.00 0.00 68 1020.0
20260503214524 15 264 4.8 9.7 0.00 0.00 0.00 65 1019.9
20260503213026 15 255 1.6 6.4 0.00 0.00 0.00 65 1019.8
20260503211524 15 211 3.2 4.8 0.00 0.00 0.00 66 1019.8
20260503210023 15 212 3.2 4.8 0.00 0.00 0.00 66 1019.7
20260503204522 15 283 1.6 4.8 0.00 0.00 0.00 63 1019.7
20260503203029 16 279 0.0 4.8 0.00 0.00 0.00 59 1019.6
20260503201521 17 213 0.0 1.6 0.00 0.00 0.00 57 1019.6
20260503200020 18 302 0.0 3.2 0.00 0.00 0.00 55 1019.5
20260503194522 18 60 0.0 3.2 0.00 0.00 0.00 53 1019.3
20260503193018 18 60 0.0 1.6 0.00 0.00 0.00 51 1019.2
20260503191521 18 59 0.0 0.0 0.00 0.00 0.00 50 1019.1
20260503190017 18 60 1.6 3.2 0.00 0.00 0.00 49 1019.0
20260503184517 18 60 0.0 1.6 0.00 0.00 0.00 48 1018.9
20260503183021 19 60 1.6 4.8 0.00 0.00 0.00 47 1018.8
20260503181516 19 335 0.0 1.6 0.00 0.00 0.00 46 1018.7
20260503180019 20 335 1.6 4.8 0.00 0.00 0.00 44 1018.7
20260503174515 20 359 3.2 6.4 0.00 0.00 0.00 43 1018.7
20260503173017 20 9 0.0 4.8 0.00 0.00 0.00 42 1018.6
20260503171514 20 94 0.0 6.4 0.00 0.00 0.00 45 1018.7
20260503081535 18 336 16.1 27.4 0.00 0.00 0.00 49 1020.4
20260503071524 17 4 25.7 35.4 0.00 0.00 0.00 48 1020.5
20260503054514 16 70 4.8 17.7 0.00 0.00 0.00 47 1020.5
20260503053007 16 341 9.7 16.1 0.00 0.00 0.00 48 1020.3
20260503051503 15 324 4.8 9.7 0.00 0.00 0.00 50 1020.3
20260503050100 14 323 1.6 9.7 0.00 0.00 0.00 52 1020.3
20260503044608 13 312 3.2 6.4 0.00 0.00 0.00 53 1020.2
20260503043102 13 326 3.2 6.4 0.00 0.00 0.00 53 1020.2
20260503041557 13 327 3.2 9.7 0.00 0.00 0.00 53 1020.3
20260503040100 13 287 4.8 14.5 0.00 0.00 0.00 52 1020.3
20260503034556 13 302 3.2 9.7 0.00 0.00 0.00 52 1020.2
20260503033123 13 288 1.6 6.4 0.00 0.00 0.00 52 1020.3
20260503031559 13 274 3.2 14.5 0.00 0.00 0.00 51 1020.3
20260503024613 13 2 9.7 14.5 0.00 0.00 0.00 51 1020.4
20260503023049 13 336 8.0 12.9 0.00 0.00 0.00 52 1020.4
20260503021553 13 345 6.4 12.9 0.00 0.00 0.00 52 1020.4
20260503020049 13 2 4.8 12.9 0.00 0.00 0.00 53 1020.4
20260503014546 13 298 6.4 11.3 0.00 0.00 0.00 54 1020.4
20260503013045 13 313 4.8 12.9 0.00 0.00 0.00 54 1020.6
20260503011546 13 317 6.4 11.3 0.00 0.00 0.00 54 1020.7
20260503010042 13 291 6.4 12.9 0.00 0.00 0.00 54 1020.8
20260503004544 13 303 3.2 9.7 0.00 0.00 0.00 55 1020.9
20260503003040 13 295 4.8 14.5 0.00 0.00 0.00 55 1021.0
20260503001540 13 327 4.8 11.3 0.00 0.00 0.00 55 1021.2
20260503000036 13 292 6.4 11.3 0.00 0.00 0.00 54 1021.3
20260502234534 13 309 3.2 9.7 0.00 0.00 0.00 53 1021.5
20260502233041 13 276 4.8 11.3 0.00 0.00 0.00 53 1021.8
20260502231545 13 277 6.4 12.9 0.00 0.00 0.00 53 1021.9